Location: Asheville, NC
(35.6000°N, 82.5500°W)
Time: 20:45:00
(UTC-04:00)

Vanguard 1 Rocket - Pass Details

Date: 07 December 2017
Orbit: 653 x 4224 km, 34.3° (Epoch: 22 June)

Event Time Altitude Azimuth Distance (km) Brightness Sun altitude
Exits shadow 04:43:28 11° 227° (SW) 6,398 11.3 -32.4°
Drops below altitude 10° 04:45:43 10° 220° (SW) 6,325 11.4 -32.0°
Sets 04:55:01 0° 193° (SSW) 6,443 11.7 -30.1°
